Lid_Strength_Index
2 2 2 2 2 2 2 1 1 1 1 1 1 1 2 2 4 5 5 5 3 3 3 3 3 3 2 4 5 0 -2 -1 3 4 4 4 4 5 6 5 6 7 7 6 4 4 4
2 2 2 2 2 2 2 1 1 1 1 1 1 2 2 3 4 5 5 5 3 3 3 3 3 3 3 6 1 0 2 3 3 3 3 3 4 4 5 5 5 6 5 4 4 5 5
1 2 2 2 2 2 1 1 1 1 1 1 1 2 3 3 4 5 5 5 3 3 3 2 3 2 5 5 1 1 3 3 3 3 4 3 3 4 4 5 4 5 6 5 5 5 6
1 1 2 1 1 1 1 1 1 1 1 1 1 3 3 3 4 5 5 5 3 2 2 2 2 2 5 2 0 2 2 3 2 2 3 2 3 3 4 4 5 5 5 8 6 5 5
1 1 1 1 1 1 1 1 1 1 1 1 1 3 3 4 5 5 5 5 2 1 2 2 1 2 4 2 2 2 1 3 3 3 3 3 3 4 4 5 6 6 8 8 8 5 6
1 1 1 1 1 1 1 1 1 1 1 1 1 3 4 4 5 6 5 3 2 2 1 1 2 4 3 4 3 3 2 2 3 3 4 4 4 5 5 6 9 8 8 8 8 7 6
1 0 1 1 1 1 1 1 1 1 1 1 1 3 4 4 5 6 3 2 3 4 4 6 5 6 4 3 3 3 2 3 3 4 5 4 6 7 6 6 6 7 7 9 8 7 8
2 1 0 1 1 1 1 1 1 1 1 1 2 3 4 4 5 6 3 4 5 5 7 5 6 6 4 4 5 4 3 5 5 6 5 6 7 5 5 5 6 6 7 9 8 7 7
2 2 1 1 1 1 1 1 1 1 1 1 2 3 4 5 5 4 4 4 3 4 6 6 5 5 4 4 5 5 4 4 5 6 6 7 6 5 5 6 7 7 8 8 9 8 7
3 2 2 1 1 2 1 1 1 1 1 1 3 3 4 5 6 5 5 3 2 3 7 7 6 5 5 4 6 4 4 4 5 6 6 6 5 6 6 7 6 8 6 7 8 8 10
3 3 3 2 2 2 1 1 1 1 1 2 3 3 3 5 5 7 5 4 2 3 12 7 7 3 4 6 5 6 4 5 6 6 5 7 6 6 7 7 6 7 6 6 7 8 9
2 3 3 3 2 2 2 1 1 1 2 2 3 3 3 4 5 6 5 4 3 9 12 8 7 7 6 6 6 6 6 4 4 5 5 6 4 5 6 5 5 5 7 7 7 8 11
2 3 3 3 2 2 2 1 1 1 2 2 2 3 4 4 6 5 5 5 8 11 7 9 9 7 7 8 8 7 7 6 6 8 8 6 6 5 5 6 5 6 7 11 12 11 12
2 2 3 3 3 2 2 2 1 2 2 2 3 4 4 4 3 4 4 7 11 8 8 7 8 7 8 8 8 7 6 7 6 6 7 9 10 6 5 6 7 7 7 10 13 12 11
2 2 3 3 3 2 2 2 2 2 2 3 4 1 2 1 3 4 5 10 8 8 6 7 8 9 9 8 7 7 7 7 6 6 8 8 9 5 5 5 5 7 7 6 9 9 11
4 2 2 3 3 2 2 2 2 1 2 3 2 3 3 2 2 4 8 10 7 6 6 7 9 8 10 9 8 7 7 6 7 5 5 7 10 6 6 5 5 6 6 9 8 13 13
4 3 2 3 3 2 2 2 1 1 2 4 2 5 2 2 2 6 10 8 8 5 6 7 7 9 9 8 7 8 8 6 6 6 5 5 7 8 6 7 8 7 7 8 8 9 12
4 4 4 2 3 3 2 2 2 2 3 5 3 7 1 1 6 6 8 7 8 6 5 7 5 7 7 7 7 8 8 7 5 6 7 6 7 8 9 6 5 6 8 8 10 11 9
3 4 4 3 3 3 2 3 2 2 4 2 5 5 -0 2 8 9 7 6 6 6 6 7 6 6 6 7 8 7 7 5 5 5 6 5 8 10 10 8 6 8 7 7 8 8 11
2 3 3 3 3 3 2 3 2 2 4 3 5 6 4 3 4 7 8 8 7 5 6 6 6 5 6 7 6 7 7 6 5 5 5 5 8 10 11 10 8 10 8 7 8 10 10
3 3 4 3 4 3 2 3 2 3 4 3 5 5 5 7 6 6 7 8 7 7 5 5 6 6 6 8 7 7 6 6 5 6 5 6 10 8 8 8 8 8 8 8 9 9 11
1 3 4 4 4 3 2 2 2 3 4 3 5 5 4 5 6 6 7 7 8 7 7 7 7 6 6 7 7 8 6 6 7 5 6 6 9 8 9 8 8 9 8 8 8 9 9
0 2 3 3 4 3 2 2 2 3 4 3 3 3 4 6 6 7 6 7 7 6 6 5 5 6 7 6 5 4 4 5 5 6 7 7 9 9 11 8 9 11 10 9 8 7 8
0 1 3 3 3 3 2 2 2 3 4 2 2 2 5 7 6 6 6 6 7 6 7 6 5 6 5 2 3 3 4 4 5 5 5 8 8 7 11 10 14 10 6 7 8 7 6
-0 1 3 3 4 3 2 2 2 3 4 2 1 3 4 7 5 6 7 7 6 6 6 5 4 3 2 4 6 8 8 7 7 6 6 5 7 10 11 11 10 9 8 8 8 9 6
-1 -0 2 3 4 4 3 2 2 2 4 2 2 1 2 6 6 5 6 6 6 6 6 5 3 2 3 5 7 10 10 9 10 8 6 6 6 8 9 12 14 9 7 5 6 11 5
-1 -1 2 3 4 4 3 2 2 2 4 2 2 0 2 5 3 4 6 6 5 5 6 5 5 5 4 6 8 8 10 8 10 10 10 8 8 9 10 11 11 7 6 5 12 11 5
-1 -1 2 3 4 3 2 2 2 2 3 2 2 1 2 4 3 3 3 5 4 5 6 5 5 5 5 7 7 7 8 7 9 8 9 9 9 9 9 11 14 5 6 9 7 4 4
-1 -0 2 3 4 4 3 3 1 2 3 3 3 1 0 3 3 1 2 2 3 3 5 4 5 5 4 6 6 6 8 8 8 11 7 10 9 8 10 10 5 4 5 4 3 4 5